Regional Weather Roundup
Issued by NWS Charleston, SC

Current Version | Previous Version | Graphics & Text | Print | Product List | Glossary On
Versions: 1 2 3 4 5 6 7 8 9 10 11 12 13 14 15 16 17 18 19 20 21 22 23 24 25 26 27 28 29 30 31 32 33 34 35 36 37 38 39 40 41 42 43 44 45 46 47 48 49 50
000 ASUS42 KCHS 160710 RWRCHS REGIONAL WEATHER ROUNDUP NATIONAL WEATHER SERVICE CHARLESTON SC 300 AM EDT TUE SEP 16 2014 NOTE: "FAIR" INDICATES FEW OR NO CLOUDS BELOW 12,000 FEET WITH NO SIGNIFICANT WEATHER AND/OR OBSTRUCTIONS TO VISIBILITY. NOT ALL STATIONS ARE QUALITY CONTROLLED BY THE NATIONAL WEATHER SERVICE. USE DATA WITH CAUTION...ESPECIALLY DEWPOINT OBSERVATIONS. SCZ027-030-031-034>040-042>050-160800- ...SOUTH CAROLINA... CITY SKY/WX TMP DP RH WIND PRES REMARKS N CHARLESTON FOG 75 73 94 CALM 30.06F VSB 1 WATERFRONT PRK N/A 81 N/A N/A N3 N/A FORT JOHNSON NOT AVBL MOUNT PLEASANT CLOUDY 73 73 100 CALM 30.06F FOG JOHNS ISLAND FOG 75 75 100 CALM 30.06F VSB 1/2 PINOPOLIS N/A 77 73 88 CALM 30.00S MONCKS CORNER NOT AVBL SUMMERVILLE FOG 72 72 100 CALM 30.07F VSB 3/4 BEAUFORT MCAS CLOUDY 76 74 93 CALM 30.06F BEAUFORT ARPT FAIR 77 77 100 CALM 30.04F HILTON HEAD IS CLOUDY 75 75 100 CALM 30.06F FOG GEORGETOWN NOT AVBL WALTERBORO CLOUDY 73 N/A N/A E3 30.06F ORANGEBURG CLOUDY 74 72 93 NW3 30.06F FOG BARNWELL FAIR 73 73 100 NW3 30.08S FOG AIKEN CLOUDY 72 72 100 CALM 30.12S THUNDER FOG MANNING CLOUDY 72 N/A N/A CALM 30.07F KINGSTREE NOT AVBL COLUMBIA CLOUDY 74 71 91 CALM 30.07F SUMTER LGT RAIN 73 70 88 NW3 30.06F FLORENCE CLOUDY 73 70 90 CALM 30.07S MYRTLE BEACH MOCLDY 72 68 88 CALM 30.06F N MYRTLE BEACH CLOUDY 72 69 90 CALM 30.06F $$ GAZ063-065-086>088-099>101-113>116-118-119-134-136>141-150-160800- ...GEORGIA... CITY SKY/WX TMP DP RH WIND PRES REMARKS SAVANNAH ARPT CLOUDY 75 72 90 CALM 30.07S HUNTER AAF FOG 74 74 100 W5 30.05S VSB 1/2 FORT STEWART CLOUDY 75 73 94 CALM 30.05F STATESBORO NOT AVBL SYLVANIA CLOUDY 73 73 98 CALM 30.08F FOG CLAXTON NOT AVBL THOMSON CLOUDY 74 74 100 CALM 30.14S AUGUSTA-BUSH CLOUDY 73 72 96 CALM 30.07S FOG AUGUSTA-DANIEL MOCLDY 74 73 97 CALM 30.09S FOG SWAINSBORO FOG 73 73 100 CALM 30.09S VSB 1 VIDALIA FOG 73 73 100 CALM 30.08F VSB 1/4 ALMA MOCLDY 72 71 97 CALM 30.08F WAYCROSS MOCLDY 76 76 99 CALM 30.08F JESUP N/A 73 73 100 NW6 30.08S BRUNSWICK CLOUDY 73 72 94 CALM 30.07F SAINT SIMONS CLOUDY 76 73 91 W3 30.06F $$ SCZ027-028-034-036>038-045-046-048>050-GAZ119-141-160800- ...LAKE AND SUPPLEMENTAL COASTAL OBSERVATIONS... STATION/POSITION TIME TEMP WIND PRES WAVE SWELL AIR SEA DIR/SP/G HT/PER HT/PER/DIR (UTC) (F) (DEG/KT/KT) (MB) (FT/S) (FT/S/D) UPR LAKE MARION NOT AVBL WINYAH BAY 0600 73 360/ 1 1018.0S LAKE MURRAY 0600 74 260/ 3/ 4 1018.6F ACE BASIN NERRS 0600 73 CALM 1018.0S FORT PULASKI 0700 79 N/A SAPELO ISLAND 0600 76 340/ 2 1018.0F $$ ANZ835-935-AMZ111-154-330-350-352-354-374-450-454-472-160800- ...C-MAN AND BUOY OBSERVATIONS... STATION/POSITION TIME TEMP WIND PRES WAVE SWELL AIR SEA DIR/SP/G HT/PER HT/PER/DIR (UTC) (F) (DEG/KT/KT) (MB) (FT/S) (FT/S/D) FOLLY BEACH CMAN 0700 76 360/ 2/ 2 1018.2F BUOY 41004 0700 81 83 230/ 2/ 4 1017.5F 2/ 8 2/ 8 BUOY 41008 0700 81 84 250/ 4/ 6 1017.3F 2/ 8 2/100/ 8 5E ST. MARYS GA 0700 84 N/A 2/13 FRYING PAN BUOY NOT AVBL BUOY 41025 0700 74 310/ 4/ 6 1017.9F 2/ 8 2/ 50/ 8 CAPE LOOKOUT NC 0700 75 130/ 6/ 6 1017.5F BUOY 41002 0638 80 83 270/ 8/ 10 1018.4F 3/ 6 3/340/ 6 BUOY 41010 0700 83 85 240/ 6/ 8 1018.9F 2/ 8 2/ 40/ 8 BUOY 41012 NOT AVBL ST AUGUSTINE FL 0700 76 210/ 4/ 5 1019.2F CAPERS NEARSHORE 0600 79 320/ 4/ 6 N/A FRIPP NEARSHORE NOT AVBL $$

USA.gov is the U.S. government's official web portal to all federal, state and local government web resources and services.